DLH457 EDDM-KSAN

Flight info

Callsign DLH457
Flight time N/A
Altitude 34000
Route GIVMI1N GIVMI Y101 INBED DCT REKDI DCT LOHRE DCT ADKUV DCT DENUT L610 KOPUL Q60 OKSAW DCT TEWXI DCT LIPGO DCT KLY DCT ENULA DCT PIKIL/M081F350 DCT 57N020W 57N030W 57N040W 56N050W DCT JANJO/N0471F360 DCT HENDY/N0473F380 DCT YSP DCT DLH DCT HON DCT BFF/N0469F400 J157 LAR DCT JNC DCT EED BARET5
Aircraft A343/H-SDE2E3FGHIJ4J5M1RWXY/LB1D1

Departure

Time N/A
Airport Munich Airport (EDDM)

Arrival

Time 2026-05-05 11:12
Airport San Diego International Airport (KSAN)
Time Latitude Longitude Altitude Speed Heading
2026-05-05 06:00 50.72838 -76.87403 35068 ft 434 kts 253°
2026-05-05 06:00 50.72090 -76.92014 35219 ft 435 kts 253°
2026-05-05 06:00 50.71338 -76.96644 35348 ft 435 kts 253°
2026-05-05 06:00 50.70583 -77.01274 35460 ft 436 kts 253°
2026-05-05 06:01 50.69827 -77.05900 35583 ft 437 kts 253°
2026-05-05 06:01 50.69064 -77.10555 35692 ft 438 kts 253°
2026-05-05 06:01 50.68299 -77.15210 35818 ft 439 kts 253°
2026-05-05 06:01 50.67532 -77.19859 35931 ft 439 kts 253°
2026-05-05 06:02 50.66761 -77.24523 36040 ft 440 kts 253°
2026-05-05 06:02 50.65987 -77.29193 36152 ft 441 kts 253°
2026-05-05 06:02 50.65220 -77.33811 36276 ft 442 kts 253°
2026-05-05 06:02 50.64440 -77.38491 36368 ft 442 kts 253°
2026-05-05 06:03 50.63648 -77.43235 36583 ft 441 kts 253°
2026-05-05 06:03 50.62865 -77.47909 36675 ft 442 kts 253°
2026-05-05 06:03 50.61288 -77.57280 36859 ft 443 kts 253°
2026-05-05 06:04 50.60494 -77.61978 36968 ft 444 kts 253°
2026-05-05 06:04 50.59700 -77.66666 37063 ft 445 kts 253°
2026-05-05 06:04 50.58099 -77.76083 37256 ft 446 kts 253°
2026-05-05 06:05 50.57294 -77.80796 37359 ft 446 kts 253°
2026-05-05 06:05 50.56486 -77.85514 37401 ft 448 kts 253°
2026-05-05 06:05 50.54856 -77.94995 37401 ft 449 kts 253°
2026-05-05 06:06 50.53222 -78.04447 37403 ft 448 kts 253°
2026-05-05 06:06 50.51581 -78.13893 37400 ft 448 kts 253°
2026-05-05 06:07 50.49933 -78.23323 37404 ft 448 kts 253°
2026-05-05 06:07 50.48287 -78.32695 37389 ft 448 kts 253°
2026-05-05 06:08 50.46620 -78.42133 37395 ft 449 kts 252°
2026-05-05 06:08 50.44947 -78.51558 37387 ft 449 kts 252°
2026-05-05 06:09 50.43263 -78.60997 37386 ft 449 kts 252°
2026-05-05 06:09 50.41572 -78.70422 37381 ft 449 kts 252°
2026-05-05 06:10 50.39874 -78.79841 37385 ft 449 kts 252°
2026-05-05 06:10 50.38167 -78.89256 37379 ft 449 kts 252°
2026-05-05 06:11 50.36450 -78.98682 37372 ft 451 kts 252°
2026-05-05 06:11 50.34723 -79.08111 37371 ft 450 kts 252°
2026-05-05 06:12 50.32991 -79.17523 37374 ft 450 kts 252°
2026-05-05 06:12 50.31250 -79.26933 37369 ft 450 kts 252°
2026-05-05 06:13 50.29503 -79.36327 37388 ft 450 kts 252°
2026-05-05 06:13 50.27746 -79.45726 37369 ft 451 kts 252°
2026-05-05 06:14 50.25979 -79.55129 37374 ft 451 kts 252°
2026-05-05 06:14 50.24207 -79.64519 37371 ft 451 kts 252°
2026-05-05 06:15 50.22425 -79.73908 37371 ft 451 kts 252°
2026-05-05 06:15 50.20637 -79.83286 37369 ft 451 kts 251°
2026-05-05 06:16 50.18843 -79.92648 37358 ft 450 kts 252°
2026-05-05 06:16 50.17041 -80.02006 37370 ft 450 kts 252°
2026-05-05 06:17 50.15234 -80.11342 37364 ft 450 kts 251°
2026-05-05 06:17 50.13419 -80.20675 37362 ft 450 kts 251°
2026-05-05 06:18 50.11598 -80.29992 37368 ft 450 kts 251°
2026-05-05 06:18 50.09768 -80.39308 37367 ft 450 kts 251°
2026-05-05 06:19 50.07932 -80.48612 37366 ft 450 kts 251°
2026-05-05 06:19 50.06099 -80.57859 37365 ft 450 kts 251°
2026-05-05 06:20 50.04248 -80.67150 37359 ft 450 kts 251°
2026-05-05 06:20 50.02392 -80.76420 37367 ft 448 kts 251°
2026-05-05 06:21 50.00533 -80.85662 37387 ft 448 kts 251°
2026-05-05 06:21 49.98665 -80.94905 37363 ft 449 kts 251°
2026-05-05 06:22 49.96789 -81.04146 37368 ft 449 kts 251°
2026-05-05 06:22 49.94904 -81.13386 37364 ft 449 kts 251°
2026-05-05 06:23 49.93011 -81.22624 37379 ft 449 kts 251°
2026-05-05 06:23 49.91110 -81.31855 37383 ft 449 kts 251°
2026-05-05 06:24 49.89202 -81.41080 37373 ft 450 kts 251°
2026-05-05 06:24 49.87284 -81.50310 37369 ft 449 kts 251°
2026-05-05 06:25 49.85364 -81.59506 37378 ft 448 kts 251°
2026-05-05 06:25 49.83443 -81.68666 37380 ft 447 kts 251°
2026-05-05 06:26 49.81512 -81.77830 37377 ft 447 kts 251°
2026-05-05 06:26 49.79575 -81.86981 37377 ft 448 kts 251°
2026-05-05 06:27 49.76657 -82.00693 37382 ft 450 kts 251°
2026-05-05 06:28 49.74690 -82.09883 37384 ft 450 kts 251°
2026-05-05 06:28 49.72717 -82.19061 37383 ft 450 kts 250°
2026-05-05 06:29 49.70734 -82.28243 37389 ft 450 kts 250°
2026-05-05 06:29 49.68755 -82.37367 37397 ft 447 kts 250°
2026-05-05 06:30 49.66769 -82.46482 37401 ft 448 kts 250°
2026-05-05 06:30 49.64777 -82.55583 37400 ft 448 kts 250°
2026-05-05 06:31 49.62777 -82.64678 37405 ft 448 kts 250°
2026-05-05 06:31 49.60771 -82.73766 37403 ft 448 kts 250°
2026-05-05 06:32 49.58757 -82.82848 37411 ft 448 kts 250°
2026-05-05 06:32 49.56733 -82.91936 37412 ft 449 kts 250°
2026-05-05 06:33 49.54699 -83.01031 37415 ft 449 kts 250°
2026-05-05 06:33 49.52660 -83.10106 37414 ft 448 kts 250°
2026-05-05 06:34 49.50617 -83.19162 37416 ft 447 kts 250°
2026-05-05 06:34 49.48584 -83.28133 37431 ft 447 kts 250°
2026-05-05 06:35 49.46527 -83.37174 37421 ft 449 kts 250°
2026-05-05 06:35 49.44445 -83.46281 37423 ft 449 kts 250°
2026-05-05 06:36 49.42383 -83.55267 37429 ft 449 kts 250°
2026-05-05 06:36 49.40300 -83.64305 37432 ft 449 kts 250°
2026-05-05 06:37 49.38210 -83.73338 37433 ft 449 kts 250°
2026-05-05 06:37 49.36112 -83.82361 37434 ft 450 kts 250°
2026-05-05 06:38 49.34005 -83.91390 37439 ft 449 kts 250°
2026-05-05 06:38 49.31893 -84.00403 37442 ft 449 kts 250°
2026-05-05 06:39 49.29773 -84.09408 37442 ft 449 kts 250°
2026-05-05 06:39 49.27648 -84.18398 37456 ft 449 kts 249°
2026-05-05 06:40 49.25516 -84.27385 37451 ft 450 kts 250°
2026-05-05 06:40 49.23368 -84.36396 37460 ft 451 kts 250°
2026-05-05 06:41 49.21576 -84.43891 37461 ft 451 kts 249°
2026-05-05 06:41 49.19413 -84.52899 37474 ft 451 kts 249°
2026-05-05 06:42 49.17243 -84.61898 37466 ft 451 kts 249°
2026-05-05 06:42 49.15069 -84.70877 37489 ft 450 kts 250°
2026-05-05 06:43 49.12895 -84.79821 37484 ft 449 kts 250°
2026-05-05 06:43 49.10715 -84.88753 37490 ft 449 kts 249°
2026-05-05 06:44 49.08531 -84.97669 37488 ft 449 kts 249°
2026-05-05 06:44 49.06337 -85.06586 37498 ft 449 kts 249°
2026-05-05 06:45 49.04135 -85.15498 37498 ft 449 kts 249°
2026-05-05 06:45 49.01928 -85.24397 37498 ft 449 kts 249°
2026-05-05 06:46 48.99729 -85.33229 37503 ft 449 kts 249°
2026-05-05 06:46 48.97509 -85.42110 37508 ft 448 kts 249°
2026-05-05 06:47 48.95286 -85.50969 37511 ft 448 kts 249°
2026-05-05 06:47 48.93059 -85.59808 37510 ft 448 kts 249°
2026-05-05 06:48 48.90825 -85.68638 37516 ft 447 kts 249°
2026-05-05 06:48 48.88588 -85.77447 37517 ft 447 kts 249°
2026-05-05 06:49 48.86345 -85.86245 37523 ft 447 kts 249°
2026-05-05 06:49 48.84093 -85.95048 37514 ft 447 kts 249°
2026-05-05 06:50 48.81835 -86.03838 37531 ft 447 kts 249°
2026-05-05 06:50 48.79570 -86.12621 37530 ft 448 kts 249°
2026-05-05 06:51 48.77286 -86.21442 37538 ft 450 kts 249°
2026-05-05 06:51 48.74995 -86.30259 37539 ft 450 kts 249°
2026-05-05 06:52 48.72623 -86.39034 37543 ft 450 kts 246°
2026-05-05 06:52 48.70037 -86.47659 37543 ft 450 kts 246°
2026-05-05 06:53 48.67427 -86.56279 37557 ft 450 kts 246°
2026-05-05 06:53 48.64843 -86.64916 37553 ft 451 kts 246°
2026-05-05 06:54 48.62266 -86.73565 37553 ft 451 kts 246°
2026-05-05 06:54 48.59685 -86.82213 37556 ft 451 kts 246°
2026-05-05 06:55 48.57105 -86.90819 37568 ft 449 kts 246°
2026-05-05 06:55 48.54524 -86.99396 37574 ft 448 kts 247°
2026-05-05 06:56 48.51943 -87.07941 37576 ft 447 kts 246°
2026-05-05 06:56 48.49357 -87.16475 37575 ft 447 kts 246°
2026-05-05 06:57 48.46786 -87.24931 37582 ft 447 kts 246°
2026-05-05 06:57 48.44188 -87.33448 37589 ft 447 kts 246°
2026-05-05 06:58 48.41584 -87.41952 37601 ft 447 kts 246°
2026-05-05 06:58 48.38982 -87.50419 37593 ft 444 kts 246°
2026-05-05 06:59 48.36389 -87.58829 37600 ft 443 kts 246°
2026-05-05 06:59 48.33792 -87.67227 37606 ft 443 kts 246°
2026-05-05 07:00 48.31190 -87.75613 37606 ft 443 kts 246°
2026-05-05 07:00 48.28580 -87.83992 37619 ft 443 kts 246°
2026-05-05 07:01 48.25967 -87.92357 37618 ft 442 kts 246°
2026-05-05 07:01 48.23353 -88.00694 37622 ft 441 kts 246°
2026-05-05 07:02 48.20734 -88.09019 37611 ft 441 kts 246°
2026-05-05 07:02 48.18114 -88.17323 37632 ft 440 kts 246°
2026-05-05 07:03 48.15489 -88.25615 37633 ft 440 kts 246°
2026-05-05 07:03 48.12861 -88.33887 37636 ft 440 kts 246°
2026-05-05 07:04 48.10223 -88.42163 37638 ft 440 kts 246°
2026-05-05 07:04 48.07583 -88.50421 37630 ft 440 kts 246°
2026-05-05 07:05 48.04935 -88.58674 37631 ft 440 kts 246°
2026-05-05 07:05 48.02281 -88.66918 37628 ft 440 kts 246°
2026-05-05 07:06 47.99621 -88.75157 37621 ft 440 kts 246°
2026-05-05 07:06 47.96963 -88.83361 37622 ft 439 kts 246°
2026-05-05 07:07 47.94301 -88.91553 37623 ft 439 kts 246°
2026-05-05 07:07 47.91634 -88.99733 37631 ft 439 kts 246°
2026-05-05 07:08 47.88961 -89.07906 37633 ft 439 kts 245°
2026-05-05 07:08 47.86281 -89.16072 37647 ft 439 kts 246°
2026-05-05 07:09 47.83597 -89.24227 37647 ft 439 kts 245°
2026-05-05 07:09 47.80900 -89.32393 37647 ft 440 kts 245°
2026-05-05 07:10 47.78196 -89.40555 37665 ft 439 kts 245°
2026-05-05 07:10 47.75494 -89.48687 37663 ft 438 kts 245°
2026-05-05 07:11 47.72788 -89.56804 37678 ft 438 kts 245°
2026-05-05 07:11 47.70093 -89.64861 37681 ft 438 kts 245°
2026-05-05 07:12 47.67376 -89.72961 37683 ft 438 kts 245°
2026-05-05 07:12 47.64651 -89.81059 37683 ft 438 kts 245°
2026-05-05 07:13 47.61922 -89.89141 37692 ft 438 kts 245°
2026-05-05 07:13 47.59185 -89.97224 37675 ft 439 kts 245°
2026-05-05 07:14 47.56445 -90.05289 37693 ft 438 kts 245°
2026-05-05 07:14 47.53699 -90.13346 37698 ft 438 kts 245°
2026-05-05 07:15 47.50949 -90.21394 37687 ft 438 kts 245°
2026-05-05 07:15 47.48189 -90.29441 37699 ft 438 kts 245°
2026-05-05 07:16 47.45445 -90.37421 37718 ft 438 kts 245°
2026-05-05 07:16 47.42678 -90.45439 37702 ft 438 kts 245°
2026-05-05 07:17 47.39905 -90.53452 37716 ft 438 kts 245°
2026-05-05 07:17 47.37127 -90.61454 37718 ft 438 kts 245°
2026-05-05 07:18 47.34345 -90.69447 37726 ft 437 kts 245°
2026-05-05 07:18 47.31561 -90.77417 37724 ft 437 kts 245°
2026-05-05 07:19 47.28771 -90.85384 37745 ft 437 kts 245°
2026-05-05 07:19 47.25978 -90.93331 37743 ft 437 kts 245°
2026-05-05 07:20 47.23180 -91.01271 37743 ft 437 kts 245°
2026-05-05 07:20 47.20377 -91.09201 37754 ft 437 kts 245°
2026-05-05 07:21 47.17568 -91.17123 37756 ft 437 kts 245°
2026-05-05 07:21 47.14756 -91.25031 37751 ft 436 kts 245°
2026-05-05 07:22 47.11962 -91.32864 37758 ft 436 kts 245°
2026-05-05 07:22 47.09144 -91.40742 37737 ft 436 kts 245°
2026-05-05 07:23 47.06321 -91.48611 37725 ft 436 kts 245°
2026-05-05 07:23 47.03494 -91.56464 37717 ft 436 kts 245°
2026-05-05 07:24 47.00659 -91.64319 37711 ft 436 kts 245°
2026-05-05 07:24 46.97820 -91.72163 37711 ft 436 kts 245°
2026-05-05 07:25 46.94972 -91.80006 37694 ft 436 kts 245°
2026-05-05 07:25 46.92124 -91.87827 37746 ft 435 kts 245°
2026-05-05 07:26 46.89273 -91.95633 37737 ft 435 kts 245°
2026-05-05 07:26 46.86419 -92.03427 37729 ft 435 kts 245°
2026-05-05 07:27 46.83559 -92.11213 37727 ft 435 kts 245°
2026-05-05 07:27 46.80694 -92.18990 37729 ft 435 kts 245°
2026-05-05 07:28 46.77886 -92.26810 37729 ft 434 kts 246°
2026-05-05 07:28 46.75192 -92.34689 37743 ft 434 kts 246°
2026-05-05 07:29 46.72951 -92.41238 37739 ft 434 kts 246°
2026-05-05 07:29 46.70230 -92.49100 37739 ft 434 kts 246°
2026-05-05 07:30 46.67499 -92.56927 37745 ft 434 kts 246°
2026-05-05 07:30 46.63378 -92.68684 37760 ft 434 kts 246°
2026-05-05 07:31 46.60627 -92.76506 37777 ft 434 kts 246°
2026-05-05 07:31 46.57866 -92.84333 37782 ft 434 kts 246°
2026-05-05 07:32 46.55102 -92.92149 37786 ft 435 kts 246°
2026-05-05 07:32 46.52330 -92.99962 37781 ft 435 kts 246°
2026-05-05 07:33 46.49557 -93.07756 37794 ft 434 kts 246°
2026-05-05 07:33 46.46804 -93.15470 37796 ft 433 kts 246°
2026-05-05 07:34 46.44028 -93.23228 37790 ft 434 kts 246°
2026-05-05 07:34 46.41242 -93.30993 37797 ft 434 kts 245°
2026-05-05 07:35 46.38451 -93.38745 37807 ft 434 kts 245°
2026-05-05 07:35 46.35653 -93.46496 37807 ft 434 kts 245°
2026-05-05 07:36 46.32850 -93.54237 37812 ft 434 kts 245°
2026-05-05 07:36 46.30041 -93.61974 37809 ft 434 kts 245°
2026-05-05 07:37 46.27235 -93.69678 37817 ft 432 kts 245°
2026-05-05 07:37 46.24432 -93.77352 37821 ft 432 kts 245°
2026-05-05 07:38 46.21621 -93.85031 37821 ft 432 kts 245°
2026-05-05 07:38 46.18805 -93.92698 37819 ft 432 kts 245°
2026-05-05 07:39 46.15987 -94.00349 37813 ft 432 kts 245°
2026-05-05 07:39 46.13180 -94.07949 37814 ft 432 kts 245°
2026-05-05 07:40 46.10330 -94.15642 37810 ft 432 kts 245°
2026-05-05 07:40 46.07497 -94.23268 37804 ft 431 kts 245°
2026-05-05 07:41 46.04691 -94.30799 37804 ft 429 kts 245°
2026-05-05 07:41 46.01849 -94.38410 37800 ft 429 kts 245°
2026-05-05 07:42 45.99034 -94.45926 37851 ft 429 kts 245°
2026-05-05 07:42 45.96199 -94.53473 37847 ft 429 kts 245°
2026-05-05 07:43 45.93361 -94.61009 37847 ft 429 kts 245°
2026-05-05 07:43 45.90517 -94.68539 37848 ft 429 kts 245°
2026-05-05 07:44 45.87663 -94.76073 37848 ft 429 kts 245°
2026-05-05 07:44 45.84850 -94.83478 37862 ft 427 kts 245°
2026-05-05 07:45 45.82036 -94.90863 37860 ft 425 kts 245°
2026-05-05 07:45 45.79191 -94.98316 37875 ft 425 kts 245°
2026-05-05 07:46 45.76349 -95.05742 37862 ft 425 kts 245°
2026-05-05 07:46 45.73501 -95.13159 37867 ft 425 kts 245°
2026-05-05 07:47 45.70665 -95.20529 37865 ft 426 kts 245°
2026-05-05 07:47 45.67798 -95.27954 37852 ft 426 kts 245°
2026-05-05 07:48 45.64926 -95.35374 37853 ft 426 kts 245°
2026-05-05 07:48 45.62059 -95.42760 37849 ft 423 kts 245°
2026-05-05 07:49 45.59208 -95.50084 37853 ft 422 kts 245°
2026-05-05 07:49 45.56348 -95.57418 37861 ft 423 kts 245°
2026-05-05 07:50 45.53482 -95.64746 37878 ft 423 kts 245°
2026-05-05 07:50 45.50609 -95.72070 37879 ft 423 kts 245°
2026-05-05 07:51 45.47732 -95.79384 37871 ft 423 kts 245°
2026-05-05 07:51 45.44851 -95.86690 37868 ft 423 kts 245°
2026-05-05 07:52 45.41961 -95.94000 37861 ft 423 kts 245°
2026-05-05 07:52 45.39077 -96.01271 37879 ft 421 kts 245°
2026-05-05 07:53 45.36201 -96.08507 37880 ft 420 kts 245°
2026-05-05 07:53 45.33321 -96.15738 37880 ft 420 kts 245°
2026-05-05 07:54 45.30436 -96.22961 37893 ft 420 kts 245°
2026-05-05 07:54 45.27547 -96.30171 37897 ft 420 kts 245°
2026-05-05 07:55 45.24655 -96.37374 37897 ft 420 kts 245°
2026-05-05 07:55 45.21761 -96.44561 37897 ft 420 kts 245°
2026-05-05 07:56 45.18860 -96.51747 37889 ft 419 kts 245°
2026-05-05 07:56 45.15971 -96.58879 37891 ft 416 kts 245°
2026-05-05 07:57 45.13105 -96.65946 37902 ft 416 kts 245°
2026-05-05 07:57 45.10198 -96.73096 37903 ft 416 kts 245°
2026-05-05 07:58 45.07303 -96.80196 37904 ft 416 kts 245°
2026-05-05 07:58 45.04405 -96.87284 37907 ft 416 kts 245°
2026-05-05 07:59 45.01504 -96.94363 37906 ft 417 kts 245°
2026-05-05 07:59 44.98610 -97.01406 37890 ft 417 kts 245°
2026-05-05 08:00 44.95693 -97.08486 37886 ft 417 kts 245°
2026-05-05 08:00 44.92781 -97.15536 37887 ft 416 kts 245°
2026-05-05 08:01 44.89863 -97.22586 37888 ft 416 kts 245°
2026-05-05 08:01 44.86943 -97.29621 37890 ft 416 kts 245°
2026-05-05 08:02 44.84018 -97.36652 37894 ft 416 kts 245°
2026-05-05 08:02 44.81087 -97.43679 37901 ft 416 kts 245°
2026-05-05 08:03 44.78151 -97.50701 37914 ft 416 kts 245°
2026-05-05 08:03 44.75213 -97.57710 37914 ft 416 kts 245°
2026-05-05 08:04 44.72271 -97.64709 37922 ft 415 kts 245°
2026-05-05 08:04 44.69337 -97.71672 37922 ft 414 kts 245°
2026-05-05 08:05 44.66399 -97.78631 37922 ft 414 kts 245°
2026-05-05 08:05 44.63459 -97.85578 37925 ft 414 kts 245°
2026-05-05 08:06 44.60515 -97.92516 37931 ft 414 kts 245°
2026-05-05 08:06 44.57585 -97.99405 37930 ft 414 kts 245°
2026-05-05 08:07 44.54624 -98.06350 37930 ft 415 kts 245°
2026-05-05 08:07 44.51653 -98.13299 37930 ft 416 kts 245°
2026-05-05 08:08 44.48676 -98.20246 37932 ft 416 kts 245°
2026-05-05 08:08 44.45697 -98.27180 37932 ft 416 kts 245°
2026-05-05 08:09 44.42705 -98.34102 37936 ft 416 kts 244°
2026-05-05 08:09 44.39618 -98.40944 37937 ft 415 kts 244°
2026-05-05 08:10 44.36509 -98.47745 37952 ft 415 kts 244°
2026-05-05 08:10 44.33413 -98.54542 37954 ft 414 kts 244°
2026-05-05 08:11 44.30322 -98.61341 37952 ft 414 kts 244°
2026-05-05 08:11 44.27234 -98.68123 37955 ft 412 kts 244°
2026-05-05 08:12 44.24166 -98.74838 37953 ft 408 kts 244°
2026-05-05 08:12 44.21118 -98.81501 37965 ft 407 kts 244°
2026-05-05 08:13 44.18066 -98.88161 37967 ft 407 kts 244°
2026-05-05 08:13 44.15527 -98.93688 37959 ft 407 kts 244°
2026-05-05 08:14 44.12468 -99.00329 37968 ft 407 kts 244°
2026-05-05 08:14 44.08907 -99.08041 37968 ft 408 kts 244°
2026-05-05 08:15 44.06337 -99.13595 37964 ft 408 kts 244°
2026-05-05 08:15 44.03262 -99.20223 37968 ft 407 kts 244°
2026-05-05 08:16 44.00198 -99.26816 37963 ft 406 kts 244°
2026-05-05 08:16 43.97127 -99.33410 37965 ft 406 kts 244°
2026-05-05 08:17 43.94078 -99.39943 37963 ft 406 kts 244°
2026-05-05 08:17 43.91001 -99.46519 37946 ft 406 kts 244°
2026-05-05 08:18 43.87919 -99.53088 37960 ft 406 kts 244°
2026-05-05 08:18 43.84834 -99.59650 37961 ft 406 kts 244°
2026-05-05 08:19 43.81748 -99.66201 37961 ft 406 kts 244°
2026-05-05 08:19 43.78655 -99.72752 37964 ft 407 kts 244°
2026-05-05 08:20 43.75557 -99.79300 37962 ft 407 kts 244°
2026-05-05 08:20 43.72452 -99.85846 37961 ft 407 kts 244°
2026-05-05 08:21 43.69346 -99.92379 37966 ft 407 kts 244°
2026-05-05 08:21 43.66236 -99.98906 37969 ft 407 kts 244°
2026-05-05 08:22 43.63122 -100.05427 37969 ft 407 kts 244°
2026-05-05 08:22 43.60004 -100.11943 37969 ft 407 kts 244°
2026-05-05 08:23 43.56878 -100.18461 37950 ft 407 kts 243°
2026-05-05 08:23 43.53786 -100.24889 37968 ft 403 kts 243°
2026-05-05 08:24 43.50698 -100.31295 37970 ft 401 kts 243°
2026-05-05 08:24 43.47615 -100.37685 37972 ft 401 kts 243°
2026-05-05 08:25 43.44524 -100.44076 37974 ft 401 kts 243°
2026-05-05 08:25 43.41434 -100.50452 37969 ft 401 kts 243°
2026-05-05 08:26 43.38333 -100.56832 37965 ft 401 kts 243°
2026-05-05 08:26 43.35232 -100.63199 37961 ft 400 kts 243°
2026-05-05 08:27 43.32139 -100.69533 37944 ft 399 kts 243°
2026-05-05 08:27 43.29054 -100.75838 37951 ft 397 kts 243°
2026-05-05 08:28 43.25976 -100.82121 37954 ft 396 kts 243°
2026-05-05 08:28 43.22897 -100.88392 37954 ft 396 kts 243°
2026-05-05 08:29 43.19812 -100.94660 37950 ft 397 kts 243°
2026-05-05 08:30 43.15178 -101.04050 37955 ft 397 kts 243°
2026-05-05 08:30 43.12083 -101.10304 37959 ft 397 kts 243°
2026-05-05 08:31 43.08984 -101.16554 37975 ft 397 kts 243°
2026-05-05 08:31 43.05890 -101.22780 37978 ft 394 kts 243°
2026-05-05 08:32 43.02815 -101.28951 37976 ft 392 kts 243°
2026-05-05 08:32 42.99742 -101.35109 37974 ft 392 kts 243°
2026-05-05 08:33 42.96694 -101.41208 37976 ft 391 kts 243°
2026-05-05 08:33 42.93624 -101.47334 37973 ft 391 kts 243°
2026-05-05 08:34 42.90549 -101.53460 37968 ft 391 kts 242°
2026-05-05 08:34 42.87469 -101.59582 37968 ft 391 kts 242°
2026-05-05 08:35 42.84386 -101.65696 37963 ft 391 kts 242°
2026-05-05 08:35 42.81302 -101.71800 37956 ft 389 kts 242°
2026-05-05 08:36 42.78247 -101.77828 37962 ft 385 kts 242°
2026-05-05 08:36 42.75206 -101.83825 37964 ft 385 kts 242°
2026-05-05 08:37 42.72163 -101.89817 37968 ft 385 kts 242°
2026-05-05 08:37 42.69118 -101.95796 37968 ft 385 kts 242°
2026-05-05 08:38 42.66067 -102.01776 37967 ft 385 kts 242°
2026-05-05 08:38 42.63012 -102.07750 37970 ft 385 kts 242°
2026-05-05 08:39 42.59980 -102.13667 37969 ft 384 kts 242°
2026-05-05 08:39 42.56929 -102.19610 37937 ft 383 kts 242°
2026-05-05 08:40 42.53894 -102.25504 37950 ft 379 kts 242°
2026-05-05 08:40 42.50876 -102.31360 37949 ft 379 kts 242°
2026-05-05 08:41 42.47858 -102.37208 37949 ft 379 kts 242°
2026-05-05 08:41 42.44834 -102.43056 37946 ft 379 kts 242°
2026-05-05 08:42 42.41802 -102.48907 37946 ft 380 kts 242°
2026-05-05 08:42 42.38759 -102.54763 37946 ft 380 kts 242°
2026-05-05 08:43 42.35714 -102.60614 37948 ft 380 kts 242°
2026-05-05 08:43 42.32665 -102.66461 37951 ft 381 kts 242°
2026-05-05 08:44 42.29619 -102.72288 37949 ft 378 kts 241°
2026-05-05 08:44 42.26588 -102.78075 37940 ft 377 kts 241°
2026-05-05 08:45 42.23551 -102.83870 37948 ft 379 kts 241°
2026-05-05 08:45 42.20506 -102.89667 37949 ft 379 kts 241°
2026-05-05 08:46 42.17455 -102.95461 37970 ft 379 kts 241°
2026-05-05 08:46 42.14397 -103.01258 37983 ft 379 kts 241°
2026-05-05 08:47 42.11358 -103.07006 37982 ft 379 kts 241°
2026-05-05 08:47 42.08291 -103.12798 37976 ft 379 kts 241°
2026-05-05 08:48 42.05221 -103.18588 37966 ft 381 kts 240°
2026-05-05 08:48 42.02132 -103.24398 37990 ft 382 kts 240°
2026-05-05 08:49 41.99036 -103.30210 37996 ft 382 kts 240°
2026-05-05 08:49 41.95939 -103.36011 38010 ft 382 kts 240°
2026-05-05 08:50 41.92837 -103.41814 38016 ft 382 kts 240°
2026-05-05 08:50 41.89924 -103.47740 38029 ft 377 kts 247°
2026-05-05 08:51 41.87970 -103.54216 38022 ft 374 kts 254°
2026-05-05 08:51 41.86364 -103.60858 38026 ft 374 kts 255°
2026-05-05 08:52 41.84805 -103.67518 38027 ft 374 kts 255°
2026-05-05 08:52 41.83230 -103.74183 38020 ft 375 kts 255°
2026-05-05 08:53 41.81649 -103.80792 38018 ft 375 kts 255°
2026-05-05 08:53 41.80050 -103.87441 38004 ft 375 kts 255°
2026-05-05 08:54 41.78442 -103.94105 38009 ft 376 kts 255°
2026-05-05 08:54 41.76827 -104.00779 38003 ft 377 kts 255°
2026-05-05 08:55 41.75209 -104.07451 38012 ft 377 kts 255°
2026-05-05 08:55 41.73586 -104.14121 37973 ft 377 kts 255°
2026-05-05 08:56 41.71955 -104.20809 38019 ft 379 kts 255°
2026-05-05 08:56 41.70315 -104.27514 38017 ft 379 kts 255°
2026-05-05 08:57 41.68668 -104.34223 38002 ft 380 kts 255°
2026-05-05 08:57 41.67017 -104.40933 38019 ft 380 kts 255°
2026-05-05 08:58 41.65362 -104.47637 38015 ft 380 kts 255°
2026-05-05 08:58 41.63702 -104.54347 38033 ft 380 kts 254°
2026-05-05 08:59 41.62040 -104.61044 38020 ft 380 kts 254°
2026-05-05 08:59 41.60372 -104.67742 38044 ft 380 kts 254°
2026-05-05 09:00 41.58700 -104.74440 38050 ft 380 kts 254°
2026-05-05 09:00 41.57027 -104.81123 38034 ft 380 kts 254°
2026-05-05 09:01 41.55348 -104.87810 38022 ft 380 kts 254°
2026-05-05 09:01 41.53677 -104.94451 38029 ft 380 kts 254°
2026-05-05 09:02 41.51988 -105.01141 38028 ft 380 kts 254°
2026-05-05 09:02 41.50296 -105.07824 38017 ft 380 kts 254°
2026-05-05 09:03 41.48599 -105.14508 38015 ft 380 kts 254°
2026-05-05 09:03 41.46899 -105.21186 38020 ft 380 kts 254°
2026-05-05 09:04 41.45193 -105.27870 38146 ft 381 kts 254°
2026-05-05 09:04 41.43767 -105.33446 38233 ft 385 kts 253°
2026-05-05 09:05 41.41742 -105.41332 38632 ft 383 kts 253°
2026-05-05 09:05 41.41169 -105.43554 38753 ft 382 kts 253°
2026-05-05 09:05 41.40307 -105.46901 38868 ft 382 kts 253°
2026-05-05 09:06 41.38576 -105.53612 39052 ft 384 kts 253°
2026-05-05 09:06 41.37710 -105.56963 39166 ft 384 kts 253°
2026-05-05 09:06 41.36836 -105.60339 39274 ft 385 kts 253°
2026-05-05 09:07 41.35079 -105.67068 39364 ft 388 kts 252°
2026-05-05 09:07 41.32543 -105.73471 39504 ft 397 kts 239°
2026-05-05 09:08 41.28922 -105.79117 39630 ft 403 kts 233°
2026-05-05 09:08 41.25074 -105.84541 39799 ft 404 kts 232°
2026-05-05 09:09 41.21186 -105.89956 39926 ft 406 kts 232°
2026-05-05 09:09 41.17326 -105.95368 39854 ft 406 kts 233°
2026-05-05 09:10 41.13460 -106.00804 39836 ft 405 kts 232°
2026-05-05 09:10 41.09597 -106.06235 39845 ft 405 kts 232°
2026-05-05 09:11 41.05728 -106.11665 39837 ft 405 kts 232°
2026-05-05 09:11 41.01861 -106.17081 39840 ft 406 kts 232°
2026-05-05 09:12 40.97976 -106.22512 39837 ft 406 kts 232°
2026-05-05 09:12 40.94090 -106.27933 39841 ft 406 kts 232°
2026-05-05 09:13 40.90204 -106.33343 39837 ft 406 kts 232°
2026-05-05 09:13 40.86312 -106.38750 39837 ft 407 kts 232°
2026-05-05 09:14 40.82409 -106.44167 39836 ft 407 kts 232°
2026-05-05 09:14 40.78501 -106.49580 39818 ft 407 kts 232°
2026-05-05 09:15 40.74604 -106.54965 39841 ft 405 kts 232°
2026-05-05 09:15 40.70710 -106.60338 39874 ft 404 kts 232°
2026-05-05 09:16 40.66817 -106.65694 39895 ft 405 kts 232°
2026-05-05 09:16 40.62917 -106.71059 39905 ft 405 kts 231°
2026-05-05 09:17 40.59018 -106.76417 39925 ft 406 kts 231°
2026-05-05 09:17 40.55126 -106.81750 39946 ft 406 kts 231°
2026-05-05 09:18 40.51196 -106.87141 39943 ft 405 kts 231°
2026-05-05 09:18 40.47303 -106.92449 39898 ft 402 kts 231°
2026-05-05 09:19 40.43419 -106.97730 39909 ft 402 kts 231°
2026-05-05 09:19 40.39566 -107.02967 39922 ft 401 kts 231°
2026-05-05 09:20 40.35687 -107.08234 39924 ft 402 kts 231°
2026-05-05 09:20 40.31807 -107.13493 39919 ft 401 kts 231°
2026-05-05 09:21 40.27922 -107.18750 39912 ft 401 kts 231°
2026-05-05 09:21 40.24047 -107.23985 39894 ft 399 kts 231°
2026-05-05 09:22 40.20187 -107.29187 39882 ft 397 kts 231°
2026-05-05 09:22 40.16340 -107.34382 39867 ft 398 kts 231°
2026-05-05 09:23 40.12475 -107.39568 39856 ft 398 kts 231°
2026-05-05 09:23 40.08612 -107.44743 39870 ft 398 kts 231°
2026-05-05 09:24 40.04746 -107.49918 39863 ft 398 kts 231°
2026-05-05 09:24 40.00880 -107.55087 39863 ft 398 kts 231°
2026-05-05 09:25 39.97015 -107.60242 39870 ft 396 kts 231°
2026-05-05 09:25 39.93202 -107.65318 39854 ft 394 kts 231°
2026-05-05 09:26 39.89377 -107.70399 39853 ft 393 kts 231°
2026-05-05 09:26 39.85550 -107.75481 39826 ft 393 kts 231°
2026-05-05 09:27 39.81725 -107.80540 39845 ft 392 kts 231°
2026-05-05 09:27 39.77902 -107.85597 39856 ft 391 kts 231°
2026-05-05 09:28 39.74096 -107.90636 39828 ft 391 kts 231°
2026-05-05 09:28 39.70285 -107.95668 39801 ft 389 kts 230°
2026-05-05 09:29 39.66494 -108.00658 39799 ft 387 kts 230°
2026-05-05 09:29 39.62710 -108.05627 39792 ft 387 kts 230°
2026-05-05 09:30 39.58924 -108.10598 39797 ft 387 kts 230°
2026-05-05 09:30 39.55138 -108.15560 39786 ft 387 kts 230°
2026-05-05 09:31 39.51345 -108.20518 39771 ft 387 kts 230°
2026-05-05 09:31 39.47554 -108.25469 39761 ft 387 kts 231°
2026-05-05 09:32 39.43769 -108.30413 39747 ft 387 kts 230°
2026-05-05 09:32 39.39991 -108.35354 39779 ft 387 kts 230°
2026-05-05 09:33 39.36189 -108.40289 39806 ft 387 kts 230°
2026-05-05 09:33 39.32384 -108.45204 39824 ft 387 kts 230°
2026-05-05 09:34 39.28569 -108.50131 39836 ft 388 kts 230°
2026-05-05 09:34 39.24763 -108.55050 39856 ft 387 kts 230°
2026-05-05 09:35 39.20980 -108.59937 39863 ft 388 kts 230°
2026-05-05 09:35 39.15235 -108.67338 39855 ft 387 kts 229°
2026-05-05 09:36 39.11447 -108.72208 39838 ft 388 kts 229°
2026-05-05 09:36 39.07627 -108.77111 39736 ft 388 kts 229°
2026-05-05 09:37 39.03877 -108.82096 39739 ft 387 kts 232°
2026-05-05 09:37 39.00341 -108.87301 39741 ft 387 kts 232°
2026-05-05 09:38 38.96780 -108.92489 39743 ft 387 kts 232°
2026-05-05 09:38 38.93207 -108.97652 39743 ft 387 kts 232°
2026-05-05 09:39 38.89620 -109.02818 39740 ft 387 kts 232°
2026-05-05 09:39 38.86038 -109.07963 39737 ft 386 kts 232°
2026-05-05 09:40 38.82465 -109.13085 39738 ft 385 kts 231°
2026-05-05 09:40 38.78888 -109.18206 39742 ft 386 kts 231°
2026-05-05 09:41 38.75301 -109.23332 39742 ft 386 kts 231°
2026-05-05 09:41 38.71711 -109.28455 39746 ft 387 kts 231°
2026-05-05 09:42 38.68117 -109.33574 39741 ft 386 kts 231°
2026-05-05 09:42 38.64523 -109.38683 39754 ft 386 kts 231°
2026-05-05 09:43 38.60932 -109.43782 39745 ft 385 kts 231°
2026-05-05 09:43 38.57342 -109.48874 39742 ft 385 kts 231°
2026-05-05 09:44 38.53751 -109.53955 39727 ft 385 kts 231°
2026-05-05 09:44 38.50189 -109.58994 39745 ft 385 kts 231°
2026-05-05 09:45 38.46595 -109.64058 39747 ft 385 kts 231°
2026-05-05 09:45 38.42998 -109.69125 39737 ft 385 kts 231°
2026-05-05 09:46 38.39397 -109.74187 39739 ft 385 kts 231°
2026-05-05 09:46 38.35799 -109.79240 39736 ft 385 kts 231°
2026-05-05 09:47 38.32194 -109.84291 39743 ft 386 kts 230°
2026-05-05 09:47 38.28592 -109.89335 39740 ft 384 kts 230°
2026-05-05 09:48 38.25002 -109.94352 39745 ft 383 kts 230°
2026-05-05 09:48 38.21414 -109.99357 39744 ft 383 kts 230°
2026-05-05 09:49 38.17826 -110.04355 39755 ft 383 kts 230°
2026-05-05 09:49 38.14233 -110.09353 39749 ft 383 kts 230°
2026-05-05 09:50 38.10642 -110.14337 39746 ft 383 kts 230°
2026-05-05 09:50 38.07042 -110.19328 39757 ft 384 kts 230°
2026-05-05 09:51 38.03442 -110.24310 39758 ft 383 kts 230°
2026-05-05 09:51 37.99859 -110.29262 39751 ft 383 kts 230°
2026-05-05 09:52 37.96271 -110.34211 39757 ft 380 kts 230°
2026-05-05 09:52 37.92697 -110.39137 39747 ft 380 kts 230°
2026-05-05 09:53 37.89113 -110.44052 39772 ft 379 kts 230°
2026-05-05 09:53 37.85541 -110.48967 39760 ft 380 kts 229°
2026-05-05 09:54 37.82537 -110.53091 39749 ft 380 kts 229°
2026-05-05 09:54 37.78974 -110.57975 39760 ft 380 kts 229°
2026-05-05 09:55 37.75385 -110.62883 39763 ft 381 kts 229°
2026-05-05 09:55 37.71783 -110.67800 39745 ft 381 kts 229°
2026-05-05 09:56 37.68197 -110.72688 39750 ft 377 kts 229°
2026-05-05 09:56 37.64642 -110.77525 39774 ft 376 kts 229°
2026-05-05 09:57 37.61084 -110.82362 39765 ft 376 kts 229°
2026-05-05 09:57 37.57520 -110.87200 39767 ft 377 kts 229°
2026-05-05 09:58 37.53956 -110.92034 39778 ft 376 kts 229°
2026-05-05 09:58 37.50388 -110.96858 39775 ft 377 kts 229°
2026-05-05 09:59 37.46812 -111.01689 39776 ft 377 kts 229°
2026-05-05 09:59 37.43236 -111.06513 39777 ft 377 kts 229°
2026-05-05 10:00 37.39662 -111.11324 39780 ft 375 kts 229°
2026-05-05 10:00 37.36115 -111.16096 39781 ft 374 kts 229°
2026-05-05 10:01 37.32549 -111.20886 39780 ft 376 kts 228°
2026-05-05 10:01 37.28970 -111.25684 39780 ft 376 kts 228°
2026-05-05 10:02 37.25383 -111.30486 39793 ft 377 kts 228°
2026-05-05 10:02 37.21799 -111.35277 39815 ft 376 kts 228°
2026-05-05 10:03 37.18218 -111.40059 39839 ft 376 kts 228°
2026-05-05 10:03 37.14632 -111.44839 39867 ft 376 kts 228°
2026-05-05 10:04 37.11046 -111.49611 39886 ft 376 kts 228°
2026-05-05 10:04 37.07464 -111.54373 39903 ft 375 kts 228°
2026-05-05 10:05 37.05674 -111.56748 39800 ft 375 kts 228°
2026-05-05 10:05 37.03884 -111.59122 39800 ft 375 kts 228°
2026-05-05 10:05 37.00332 -111.63829 39799 ft 374 kts 228°
2026-05-05 10:06 36.96737 -111.68586 39803 ft 374 kts 228°
2026-05-05 10:06 36.93188 -111.73281 39810 ft 373 kts 228°
2026-05-05 10:07 36.89656 -111.77940 39810 ft 375 kts 228°
2026-05-05 10:07 36.86068 -111.82663 39822 ft 374 kts 228°
2026-05-05 10:08 36.82483 -111.87375 39826 ft 374 kts 228°
2026-05-05 10:08 36.78896 -111.92088 39824 ft 374 kts 228°
2026-05-05 10:09 36.75312 -111.96790 39846 ft 374 kts 228°
2026-05-05 10:09 36.71724 -112.01491 39840 ft 374 kts 228°
2026-05-05 10:10 36.68137 -112.06181 39842 ft 374 kts 228°
2026-05-05 10:10 36.64548 -112.10867 39851 ft 374 kts 228°
2026-05-05 10:11 36.60956 -112.15551 39858 ft 375 kts 228°
2026-05-05 10:11 36.57349 -112.20244 39878 ft 375 kts 228°
2026-05-05 10:12 36.53740 -112.24942 39864 ft 376 kts 228°
2026-05-05 10:12 36.50127 -112.29634 39871 ft 376 kts 228°
2026-05-05 10:13 36.46537 -112.34289 39878 ft 375 kts 228°
2026-05-05 10:13 36.42925 -112.38965 39879 ft 376 kts 228°
2026-05-05 10:14 36.39302 -112.43650 39874 ft 376 kts 228°
2026-05-05 10:14 36.35678 -112.48330 39841 ft 375 kts 227°
2026-05-05 10:15 36.32052 -112.53003 39887 ft 379 kts 227°
2026-05-05 10:15 36.28369 -112.57741 39892 ft 381 kts 227°
2026-05-05 10:16 36.24697 -112.62461 39871 ft 380 kts 227°
2026-05-05 10:16 36.21024 -112.67177 39872 ft 380 kts 227°
2026-05-05 10:17 36.17352 -112.71883 39864 ft 380 kts 227°
2026-05-05 10:17 36.13675 -112.76596 39881 ft 381 kts 227°
2026-05-05 10:18 36.09994 -112.81297 39878 ft 381 kts 227°
2026-05-05 10:18 36.06305 -112.86004 39871 ft 381 kts 227°
2026-05-05 10:19 36.02619 -112.90701 39869 ft 381 kts 227°
2026-05-05 10:19 35.98926 -112.95400 39870 ft 381 kts 227°
2026-05-05 10:20 35.95234 -113.00092 39865 ft 381 kts 227°
2026-05-05 10:20 35.91537 -113.04783 39866 ft 381 kts 227°
2026-05-05 10:21 35.87843 -113.09463 39862 ft 380 kts 227°
2026-05-05 10:21 35.84183 -113.14095 39860 ft 380 kts 227°
2026-05-05 10:22 35.80493 -113.18758 39863 ft 380 kts 227°
2026-05-05 10:22 35.76800 -113.23417 39849 ft 380 kts 227°
2026-05-05 10:23 35.73107 -113.28070 39852 ft 380 kts 226°
2026-05-05 10:23 35.69410 -113.32720 39854 ft 380 kts 226°
2026-05-05 10:24 35.65716 -113.37362 39843 ft 380 kts 226°
2026-05-05 10:24 35.62017 -113.42006 39845 ft 380 kts 227°
2026-05-05 10:25 35.58311 -113.46651 39836 ft 381 kts 226°
2026-05-05 10:25 35.54599 -113.51292 39839 ft 380 kts 226°
2026-05-05 10:26 35.50901 -113.55912 39839 ft 379 kts 226°
2026-05-05 10:26 35.47214 -113.60512 39845 ft 379 kts 226°
2026-05-05 10:27 35.43514 -113.65121 39860 ft 379 kts 226°
2026-05-05 10:27 35.39816 -113.69721 39880 ft 379 kts 226°
2026-05-05 10:28 35.36114 -113.74321 39899 ft 379 kts 226°
2026-05-05 10:28 35.32405 -113.78925 39928 ft 381 kts 226°
2026-05-05 10:29 35.28676 -113.83544 39943 ft 382 kts 226°
2026-05-05 10:29 35.24947 -113.88158 39939 ft 380 kts 226°
2026-05-05 10:30 35.21237 -113.92741 39945 ft 378 kts 226°
2026-05-05 10:30 35.17559 -113.97279 39943 ft 378 kts 226°
2026-05-05 10:31 35.13858 -114.01840 39814 ft 378 kts 226°
2026-05-05 10:31 35.10152 -114.06400 39818 ft 378 kts 226°
2026-05-05 10:32 35.06437 -114.10968 39818 ft 381 kts 226°
2026-05-05 10:32 35.02696 -114.15557 39815 ft 382 kts 226°
2026-05-05 10:33 34.98949 -114.20147 39813 ft 382 kts 226°
2026-05-05 10:33 34.95200 -114.24734 39791 ft 382 kts 226°
2026-05-05 10:34 34.91461 -114.29304 39820 ft 380 kts 226°
2026-05-05 10:34 34.87732 -114.33855 39835 ft 379 kts 226°
2026-05-05 10:35 34.83999 -114.38405 39860 ft 379 kts 226°
2026-05-05 10:35 34.80263 -114.42953 39870 ft 381 kts 226°
2026-05-05 10:36 34.76503 -114.47523 39880 ft 382 kts 226°
2026-05-05 10:36 34.72676 -114.51954 39886 ft 382 kts 224°
2026-05-05 10:37 34.68765 -114.56391 39887 ft 382 kts 224°
2026-05-05 10:37 34.64885 -114.60810 39881 ft 382 kts 224°
2026-05-05 10:38 34.61024 -114.65211 39879 ft 380 kts 224°
2026-05-05 10:38 34.57201 -114.69567 39867 ft 379 kts 224°
2026-05-05 10:39 34.53358 -114.73939 39864 ft 379 kts 224°
2026-05-05 10:39 34.49527 -114.78292 39858 ft 379 kts 224°
2026-05-05 10:40 34.45680 -114.82658 39851 ft 379 kts 224°
2026-05-05 10:40 34.41832 -114.87019 39854 ft 379 kts 224°
2026-05-05 10:41 34.37981 -114.91377 39857 ft 379 kts 224°
2026-05-05 10:42 34.28595 -115.01977 39900 ft 377 kts 224°
2026-05-05 10:43 34.24735 -115.06328 39871 ft 382 kts 224°
2026-05-05 10:43 34.20828 -115.10724 39870 ft 384 kts 224°
2026-05-05 10:44 34.16939 -115.15094 39875 ft 384 kts 224°
2026-05-05 10:44 34.13026 -115.19486 39887 ft 384 kts 224°
2026-05-05 10:45 34.09112 -115.23870 39879 ft 384 kts 224°
2026-05-05 10:45 34.05194 -115.28257 39883 ft 384 kts 224°
2026-05-05 10:46 34.01275 -115.32637 39856 ft 384 kts 224°
2026-05-05 10:46 33.97354 -115.37008 39896 ft 384 kts 224°
2026-05-05 10:47 33.93437 -115.41379 39896 ft 384 kts 224°
2026-05-05 10:47 33.89514 -115.45749 39898 ft 384 kts 224°
2026-05-05 10:48 33.85611 -115.50084 39648 ft 376 kts 224°
2026-05-05 10:48 33.83698 -115.52210 39181 ft 375 kts 224°
2026-05-05 10:48 33.81779 -115.54342 38673 ft 375 kts 224°
2026-05-05 10:48 33.79863 -115.56465 38161 ft 374 kts 224°
2026-05-05 10:49 33.77948 -115.58590 37545 ft 374 kts 224°
2026-05-05 10:49 33.76031 -115.60717 36928 ft 375 kts 224°
2026-05-05 10:49 33.74111 -115.62845 36290 ft 376 kts 224°
2026-05-05 10:49 33.72192 -115.64972 35727 ft 376 kts 224°
2026-05-05 10:50 33.70287 -115.67078 35044 ft 379 kts 223°
2026-05-05 10:50 33.68348 -115.69218 34479 ft 377 kts 224°
2026-05-05 10:50 33.66426 -115.71340 33940 ft 375 kts 224°
2026-05-05 10:50 33.64501 -115.73466 33236 ft 375 kts 223°
2026-05-05 10:51 33.62612 -115.75635 32411 ft 378 kts 227°
2026-05-05 10:51 33.60944 -115.78088 31583 ft 381 kts 232°
2026-05-05 10:51 33.59416 -115.80701 30764 ft 384 kts 233°
2026-05-05 10:51 33.57896 -115.83354 29984 ft 387 kts 233°
2026-05-05 10:52 33.56369 -115.86013 29111 ft 388 kts 233°
2026-05-05 10:52 33.54839 -115.88667 28466 ft 385 kts 233°
2026-05-05 10:52 33.53324 -115.91292 27912 ft 380 kts 233°
2026-05-05 10:52 33.51826 -115.93884 27365 ft 376 kts 233°
2026-05-05 10:53 33.50347 -115.96450 26837 ft 373 kts 234°
2026-05-05 10:53 33.48874 -115.98994 26290 ft 370 kts 234°
2026-05-05 10:53 33.47410 -116.01514 25722 ft 368 kts 234°
2026-05-05 10:53 33.45953 -116.04023 25185 ft 366 kts 234°
2026-05-05 10:54 33.44501 -116.06522 24643 ft 365 kts 234°
2026-05-05 10:54 33.43052 -116.09014 24092 ft 364 kts 234°
2026-05-05 10:54 33.41608 -116.11498 23540 ft 364 kts 234°
2026-05-05 10:54 33.40163 -116.13981 22923 ft 363 kts 234°
2026-05-05 10:55 33.38736 -116.16416 22364 ft 361 kts 233°
2026-05-05 10:55 33.37093 -116.18671 21845 ft 359 kts 224°
2026-05-05 10:55 33.35248 -116.20689 21285 ft 358 kts 222°
2026-05-05 10:55 33.33377 -116.22659 20754 ft 358 kts 222°
2026-05-05 10:56 33.31509 -116.24611 20195 ft 356 kts 222°
2026-05-05 10:56 33.29646 -116.26558 19687 ft 355 kts 222°
2026-05-05 10:56 33.27793 -116.28498 19161 ft 354 kts 222°
2026-05-05 10:56 33.25939 -116.30442 18641 ft 354 kts 222°
2026-05-05 10:57 33.24089 -116.32382 18072 ft 355 kts 222°
2026-05-05 10:57 33.22238 -116.34323 17505 ft 354 kts 222°
2026-05-05 10:57 33.20387 -116.36263 16943 ft 353 kts 222°
2026-05-05 10:57 33.18546 -116.38192 16406 ft 352 kts 222°
2026-05-05 10:58 33.16715 -116.40110 15868 ft 350 kts 222°
2026-05-05 10:58 33.14886 -116.42025 15331 ft 350 kts 223°
2026-05-05 10:58 33.13056 -116.43939 14784 ft 349 kts 222°
2026-05-05 10:58 33.11228 -116.45848 14225 ft 349 kts 223°
2026-05-05 10:59 33.09397 -116.47757 13679 ft 350 kts 223°
2026-05-05 10:59 33.07569 -116.49668 13106 ft 349 kts 223°
2026-05-05 10:59 33.05752 -116.51567 12575 ft 347 kts 223°
2026-05-05 10:59 33.03939 -116.53459 12025 ft 346 kts 223°
2026-05-05 11:00 33.02142 -116.55333 11476 ft 343 kts 223°
2026-05-05 11:00 33.00350 -116.57200 10935 ft 342 kts 223°
2026-05-05 11:00 32.98569 -116.59053 10554 ft 336 kts 223°
2026-05-05 11:00 32.97421 -116.60248 10464 ft 326 kts 223°
2026-05-05 11:01 32.95745 -116.61986 10362 ft 314 kts 222°
2026-05-05 11:01 32.93968 -116.63422 10261 ft 306 kts 207°
2026-05-05 11:01 32.91956 -116.64159 10120 ft 299 kts 195°
2026-05-05 11:01 32.89941 -116.64659 10002 ft 291 kts 194°
2026-05-05 11:02 32.87994 -116.65129 9843 ft 283 kts 195°
2026-05-05 11:02 32.86073 -116.65598 9587 ft 279 kts 195°
2026-05-05 11:02 32.84185 -116.66063 9291 ft 275 kts 195°
2026-05-05 11:02 32.82327 -116.66521 8674 ft 271 kts 195°
2026-05-05 11:03 32.80490 -116.66979 8129 ft 265 kts 195°
2026-05-05 11:03 32.78739 -116.67489 7743 ft 254 kts 202°
2026-05-05 11:03 32.77223 -116.68500 7418 ft 250 kts 223°
2026-05-05 11:03 32.76109 -116.70069 7084 ft 249 kts 237°
2026-05-05 11:04 32.75166 -116.71801 6744 ft 250 kts 239°
2026-05-05 11:04 32.74237 -116.73553 6401 ft 251 kts 238°
2026-05-05 11:04 32.73301 -116.75304 6052 ft 251 kts 238°
2026-05-05 11:04 32.72361 -116.77046 5705 ft 250 kts 239°
2026-05-05 11:05 32.71426 -116.78784 5378 ft 249 kts 238°
2026-05-05 11:05 32.70507 -116.80488 5041 ft 249 kts 238°
2026-05-05 11:05 32.69564 -116.82236 4695 ft 248 kts 238°
2026-05-05 11:05 32.68645 -116.83925 4353 ft 247 kts 238°
2026-05-05 11:06 32.67716 -116.85636 4019 ft 246 kts 239°
2026-05-05 11:06 32.66827 -116.87359 3648 ft 245 kts 245°
2026-05-05 11:06 32.66372 -116.89276 3315 ft 241 kts 269°
2026-05-05 11:06 32.66599 -116.91225 3053 ft 237 kts 285°
2026-05-05 11:07 32.67063 -116.93075 2907 ft 229 kts 286°
2026-05-05 11:07 32.67510 -116.94858 2745 ft 221 kts 285°
2026-05-05 11:07 32.67932 -116.96570 2670 ft 209 kts 285°
2026-05-05 11:07 32.68329 -116.98179 2678 ft 198 kts 285°
2026-05-05 11:08 32.68699 -116.99699 2671 ft 186 kts 285°
2026-05-05 11:08 32.69043 -117.01121 2672 ft 172 kts 284°
2026-05-05 11:08 32.69366 -117.02463 2682 ft 169 kts 285°
2026-05-05 11:08 32.69681 -117.03770 2726 ft 158 kts 285°
2026-05-05 11:09 32.69972 -117.04971 2618 ft 146 kts 285°
2026-05-05 11:09 32.70243 -117.06097 2401 ft 137 kts 285°
2026-05-05 11:09 32.70500 -117.07164 2181 ft 132 kts 285°
2026-05-05 11:09 32.70755 -117.08216 2002 ft 134 kts 285°
2026-05-05 11:10 32.71012 -117.09279 1892 ft 135 kts 284°
2026-05-05 11:10 32.71272 -117.10354 1693 ft 136 kts 284°
2026-05-05 11:10 32.71530 -117.11424 1453 ft 134 kts 285°
2026-05-05 11:10 32.71788 -117.12486 1226 ft 134 kts 285°
2026-05-05 11:11 32.72046 -117.13552 1015 ft 135 kts 285°
2026-05-05 11:11 32.72297 -117.14608 747 ft 133 kts 286°
2026-05-05 11:11 32.72561 -117.15659 528 ft 133 kts 285°
2026-05-05 11:11 32.72819 -117.16723 309 ft 132 kts 284°
2026-05-05 11:12 32.73070 -117.17776 92 ft 131 kts 285°
2026-05-05 11:12 32.73299 -117.18739 25 ft 99 kts 286°
2026-05-05 11:12 32.73409 -117.19187 29 ft 12 kts 286°
2026-05-05 11:12 32.73434 -117.19288 31 ft 13 kts 286°
2026-05-05 11:13 32.73451 -117.19387 27 ft 12 kts 271°
2026-05-05 11:13 32.73429 -117.19478 28 ft 12 kts 252°
2026-05-05 11:13 32.73407 -117.19578 27 ft 13 kts 264°
2026-05-05 11:13 32.73426 -117.19687 27 ft 14 kts 284°
2026-05-05 11:14 32.73452 -117.19798 27 ft 14 kts 289°
2026-05-05 11:14 32.73484 -117.19918 27 ft 15 kts 287°
2026-05-05 11:14 32.73514 -117.20045 27 ft 17 kts 285°
2026-05-05 11:14 32.73543 -117.20180 27 ft 17 kts 270°
2026-05-05 11:15 32.73490 -117.20246 27 ft 10 kts 195°
2026-05-05 11:15 32.73422 -117.20270 27 ft 11 kts 197°
2026-05-05 11:15 32.73340 -117.20269 27 ft 12 kts 168°
2026-05-05 11:15 32.73295 -117.20244 27 ft 0 kts 118°
2026-05-05 11:16 32.73297 -117.20228 27 ft 5 kts 89°
2026-05-05 11:16 32.73293 -117.20184 27 ft 6 kts 97°